星链-36580(STARLINK-36580)

导读

STARLINK-36580是美国太空探索技术公司星链星座的一颗卫星,于2026年1月22日发射入轨,星链项目旨在构建覆盖全球的低轨卫星互联网星座,为全球范围内用户提供高速宽带接入服务,该卫星的成功发射进一步扩充了星链星座的在轨卫星规模。

Basic Information
目录编号:
67546
目录名称:
STARLINK-36580
国际标识:
2026-014Q
轨道中心:
EARTH
卫星名称:
星链-36580
卫星全名:
星链-36580(STARLINK-36580)
卫星状态:
在轨 (已飞行226 天)
发射日期:
2026-01-22 UTC
国别 :
美国 (US)
星等 :
--
Orbit Information
数据来源 国际轨道数据
星历时间: 2026-09-05T13:13:09+0800
7小时前
查看轨道信息
半长轴: 6843.771km
偏心率: 0.0001554
轨道倾角: 97.285°
近地点辐角 93.913°
升交点赤经 133.762°
平近点角 266.229°
近地点: 464.57km
远地点: 466.698km
周期: 93.908分钟
每日圈数: 15.334147
Detailed Information
固有亮度:
5
最大亮度:
2.5
卫星平台:
Starlink V1.0
覆盖范围:
全球
运营商:
太空探索技术公司
运营商所在国:
美国
制造商(研发单位):
太空探索技术公司
制造商所在国:
美国
使用方式:
暂无
Satellite Introduction
Starlink 计划是 SpaceX 推出的全球卫星互联网项目,通过发射低轨道卫星,为全球尤其是偏远地区提供高速、低延迟的互联网服务。自 2019 年起,Starlink 已部署数千颗卫星,旨在缩小全球数字鸿沟,推动互联网普及。该项目还为军事、航空等行业提供通信支持,带来广泛经济效益。
2D Orbit Map
3D Orbit Map
Orbit Altitude Analysis Chart
Orbit Inclination Analysis Chart
Orbit Comprehensive Analysis Chart
View Comprehensive Chart
Conjunction Data List
Event ID Objects TCA Miss Dist (km) Collision Risk Probability Collision Risk Index (CRI) Action
CDM_260906-173706-754606-790221
2026-09-06T
17:37:04+0000
0.941 km
远距离
1.770806E-5 中风险 0.6
CDM_260906-055905-511106-754622
2026-09-06T
05:59:46+0000
1.341 km
极远距离
9.687777E-6 低风险 0.55
CDM_260907-033806-349906-754621
2026-09-07T
03:38:42+0000
1.518 km
极远距离
5.932407E-6 低风险 0.5
CDM_260905-230306-189506-754623
OBJECT B (61895)
2026-09-05T
23:03:23+0000
2.040 km
极远距离
2.749054E-6 低风险 0.44
CDM_260906-182406-754606-790221
2026-09-06T
18:24:03+0000
1.779 km
极远距离
2.203715E-6 低风险 0.42
CDM_260907-200506-754606-983521
2026-09-07T
20:05:53+0000
2.647 km
极远距离
1.427731E-6 低风险 0.38
CDM_260906-061005-475906-754621
2026-09-06T
06:10:10+0000
2.894 km
极远距离
1.39083E-6 低风险 0.38
CDM_260906-171304-829206-754621
2026-09-06T
17:13:23+0000
2.920 km
极远距离
1.38218E-6 低风险 0.38
CDM_260907-222606-754606-983521
2026-09-07T
22:26:48+0000
2.828 km
极远距离
1.296528E-6 低风险 0.37
CDM_260907-171705-189606-754621
2026-09-07T
17:17:05+0000
2.885 km
极远距离
1.289738E-6 低风险 0.37